Weather Roundup
Issued by NWS

Home | Current Version | Previous Version | Graphics & Text | Print | Product List | Glossary Off
Versions: 1 2 3 4 5 6 7 8 9 10 11 12 13 14 15 16 17 18 19 20 21 22 23 24 25 26 27 28 29 30 31 32 33 34 35 36 37 38 39 40 41 42 43 44 45 46 47 48 49 50

154
NZUS93 KARX 202210
HRRWXR

CURRENT HOURLY OBSERVATIONS ACROSS
MUCH OF THE UPPER MISSISSIPPI VALLEY
NATIONAL WEATHER SERVICE LA CROSSE WI
400 PM CST SAT JAN 20 2018


...SOUTHEAST MINNESOTA...


CITY           SKY/WX    TMP DP  RH WIND       PRES   REMARKS
ROCHESTER      FAIR      40  35  83 CALM      29.87S
ROCHESTER/MAYO FAIR      41  32  69 CALM      29.88S
WINONA         FAIR      39  32  75 CALM      29.89R
AUSTIN         NOT AVBL
ALBERT LEA     FAIR      41  34  75 CALM      29.87S
DODGE CENTER   FAIR      37  34  87 CALM      29.88R
PRESTON        FAIR      40  32  72 CALM      29.88R
OWATONNA       FAIR      37  34  87 CALM      29.89R
FARIBAULT      FAIR      39  32  75 CALM      29.89S
$$

...ELSEWHERE IN MINNESOTA...


CITY           SKY/WX    TMP DP  RH WIND       PRES   REMARKS
MINNEAPOLIS    FAIR      42  33  70 SW3       29.89R
INTNL FALLS    FAIR      37  27  67 VRB3      29.79R
DULUTH         MOCLDY    41  29  62 W8        29.82R
RED WING       FAIR      36  28  75 CALM      29.89S
REDWOOD FALLS  CLOUDY    45  30  55 NW6       29.88R
MANKATO        FAIR      42  32  67 NW3       29.89R
WORTHINGTON    MOSUNNY   43  34  70 N8        29.88R
FAIRMONT       MOSUNNY   42  35  76 N8        29.88S
$$

...SOUTHWEST WISCONSIN...


CITY           SKY/WX    TMP DP  RH WIND       PRES   REMARKS
LA CROSSE      FAIR      40  32  73 CALM      29.89F
PRAIRIE DU CHI FAIR      49  31  50 CALM      29.88S
BOSCOBEL       FAIR      52  33  48 NE3       29.89R
LONE ROCK      FAIR      49  34  56 CALM      29.89S
PLATTEVILLE    FAIR      45  36  69 SE5       29.89F
FORT MC COY    FAIR      42  33  69 CALM      29.90S
CAMP DOUGLAS   MOCLDY    43  32  65 SE3       29.89R
MAUSTON-NEW LI FAIR      44  32  62 CALM      29.89S
VIROQUA        FAIR      41  35  78 CALM      29.88S
WIS DELLS      FAIR      46  31  56 NE3       29.89S
$$

...ELSEWHERE IN WISCONSIN...


CITY           SKY/WX    TMP DP  RH WIND       PRES   REMARKS
MILWAUKEE      MOCLDY    43  32  65 E5        29.92R
MADISON        FAIR      47  32  56 S5        29.91R
GREEN BAY      FAIR      39  31  72 S3        29.92R
EAU CLAIRE     CLOUDY    39  31  72 CALM      29.89R
BLACK RVR FLS  FAIR      42  30  61 CALM      29.90S
MEDFORD        CLOUDY    35  30  82 S3        29.87R
WAUSAU         MOCLDY    39  30  70 CALM      29.87R
WIS RAPIDS     FAIR      40  28  62 CALM      29.91R
MARSHFIELD     FAIR      39  31  72 CALM      29.87S
RICE LAKE      CLOUDY    38  32  79 S6        29.89R WCI  33
$$

...NORTHEAST IOWA...


CITY           SKY/WX    TMP DP  RH WIND       PRES   REMARKS
WATERLOO       FAIR      48  33  56 E6        29.86R
DUBUQUE        FAIR      44  32  62 SE7       29.89R
DECORAH        FAIR      48  36  61 CALM      29.87R
MASON CITY     PTCLDY    49  34  56 E3        29.87S
CHARLES CITY   FAIR      48  36  61 CALM      29.87S
OELWEIN        FAIR      46  39  76 SE3       29.87S
$$

...ELSEWHERE IN IOWA...


CITY           SKY/WX    TMP DP  RH WIND       PRES   REMARKS
DES MOINES     MOSUNNY   43  37  79 SW6       29.88R
IOWA CITY      CLOUDY    44  36  73 SW6       29.93R
FORT DODGE     SUNNY     48  37  65 NE6       29.86R
MARSHALLTOWN   SUNNY     48  33  56 S6        29.86R
CEDAR RAPIDS   FAIR      46  37  71 S9        29.88R
$$

...NORTHERN ILLINOIS...


CITY           SKY/WX    TMP DP  RH WIND       PRES   REMARKS
CHICAGO-OHARE  MOCLDY    45  33  63 SW9       29.94R
CHICAGO-MIDWAY MOCLDY    46  35  65 SW8       29.95R
MOLINE         CLOUDY    44  37  76 SW7       29.92R
ROCKFORD       FAIR      44  33  65 S5        29.94R
PEORIA         CLOUDY    46  39  76 SW7       29.95R
$$

NOTE: "FAIR" INDICATES FEW OR NO CLOUDS BELOW 12,000 FEET WITH NO
SIGNIFICANT WEATHER AND/OR OBSTRUCTIONS TO VISIBILITY. WIND
SPEEDS ARE IN MILES-PER-HOUR.




USA.gov is the U.S. government's official web portal to all federal, state and local government web resources and services.